Weather History for Yuma MCAS, AZ

Change the Weather History Date:

Thursday, January 31, 2013

  Actual Average Record
Temperature  
Mean Temperature 59 °F 60 °F  
Max Temperature 72 °F 71 °F 87 °F (2003)
Min Temperature 45 °F 49 °F 30 °F (1949)
Degree Days  
Heating Degree Days 6 5  
Month to date heating degree days 284 205  
Since 1 July heating degree days 521 508  
Cooling Degree Days 0 0  
Month to date cooling degree days 3 6  
Year to date cooling degree days 3 6  
Growing Degree Days 8 (Base 50)    
Moisture  
Dew Point 36 °F    
Average Humidity 48    
Maximum Humidity 71    
Minimum Humidity 25    
Precipitation  
Precipitation 0.00 in 0.01 in 0.24 in (1919)
Month to date precipitation 1.02 0.37  
Year to date precipitation 1.02 0.37  
Sea Level Pressure  
Sea Level Pressure 30.18 in    
Wind  
Wind Speed 6 mph (NNE)    
Max Wind Speed 14 mph    
Max Gust Speed 17 mph    
Visibility 10 miles    
Events      
T = Trace of Precipitation, MM = Missing Value Source: NWS Daily Summary

Daily Weather History Graph

Daily Weather History Graph

Search for Another Location

Airport:

Trip Planner

Search our weather history database for the weather conditions in past years. The results will help you decide how hot, cold, wet, or windy it might be!

Date:

Astronomy

Jan. 31, 2013 Rise Set
Actual Time 7:33 AM MST 6:10 PM MST
Civil Twilight 7:07 AM MST 6:36 PM MST
Nautical Twilight 6:38 AM MST 7:06 PM MST
Astronomical Twilight 6:09 AM MST 7:35 PM MST
Moon 10:56 PM MST (1/31) 9:54 AM MST (1/31)
Length of Visible Light 11h 28m
Length of Day
10h 37m
Waning Gibbous, 79% of the Moon is Illuminated
Jan 31
Waning Gibbous
Feb 3
Last Quarter
Feb 10
New
Feb 17
First Quarter
Feb 25
Full

Hourly Weather History & Observations

Time (MST) Temp. Windchill Dew Point Humidity Pressure Visibility Wind Dir Wind Speed Gust Speed Precip Events Conditions
12:55 AM 52.0 °F - 37.9 °F 59% 30.25 in 10.0 mi East 3.5 mph - N/A   Partly Cloudy
1:55 AM 48.9 °F - 37.9 °F 66% 30.24 in 10.0 mi Calm Calm - N/A   Partly Cloudy
2:55 AM 48.9 °F - 37.9 °F 66% 30.22 in 10.0 mi Calm Calm - N/A   Partly Cloudy
3:55 AM 48.9 °F - 37.0 °F 64% 30.21 in 10.0 mi NE 3.5 mph - N/A   Partly Cloudy
4:00 AM - - - N/A% - - North - - N/A   Unknown
4:55 AM 46.9 °F - 36.0 °F 66% 30.21 in 10.0 mi NNE 3.5 mph - N/A   Scattered Clouds
5:55 AM 46.9 °F - 37.0 °F 68% 30.20 in 10.0 mi North 4.6 mph - N/A   Scattered Clouds
6:55 AM 46.0 °F 44.8 °F 37.0 °F 71% 30.22 in 10.0 mi NNE 3.5 mph - N/A   Mostly Cloudy
7:55 AM 48.0 °F - 36.0 °F 63% 30.21 in 10.0 mi NNE 8.1 mph - N/A   Mostly Cloudy
8:55 AM 51.1 °F - 37.0 °F 59% 30.24 in 10.0 mi ENE 3.5 mph - N/A   Mostly Cloudy
9:55 AM 55.9 °F - 36.0 °F 47% 30.25 in 10.0 mi North 9.2 mph - N/A   Mostly Cloudy
10:55 AM 57.9 °F - 39.0 °F 49% 30.25 in 10.0 mi NE 6.9 mph - N/A   Mostly Cloudy
11:55 AM 61.0 °F - 37.9 °F 42% 30.23 in 10.0 mi NE 9.2 mph - N/A   Mostly Cloudy
12:55 PM 66.0 °F - 37.0 °F 34% 30.20 in 10.0 mi North 6.9 mph - N/A   Mostly Cloudy
1:55 PM 69.1 °F - 33.1 °F 26% 30.16 in 10.0 mi North 8.1 mph - N/A   Mostly Cloudy
2:55 PM 71.1 °F - 33.1 °F 25% 30.14 in 10.0 mi North 9.2 mph - N/A   Mostly Cloudy
3:55 PM 71.1 °F - 33.1 °F 25% 30.12 in 10.0 mi NNW 8.1 mph - N/A   Mostly Cloudy
4:55 PM 70.0 °F - 33.1 °F 26% 30.11 in 10.0 mi North 12.7 mph - N/A   Scattered Clouds
5:55 PM 68.0 °F - 33.1 °F 27% 30.13 in 10.0 mi NNW 9.2 mph - N/A   Partly Cloudy
6:55 PM 64.0 °F - 35.1 °F 34% 30.13 in 10.0 mi NNW 6.9 mph - N/A   Partly Cloudy
7:01 PM - - - N/A% - - North - - N/A   Unknown
7:55 PM 62.1 °F - 35.1 °F 37% 30.12 in 10.0 mi North 5.8 mph - N/A   Partly Cloudy
8:55 PM 60.1 °F - 37.0 °F 42% 30.12 in 10.0 mi North 4.6 mph - N/A   Clear
9:00 PM - - - N/A% - - North - - N/A   Unknown
9:55 PM 57.0 °F - 37.9 °F 49% 30.13 in 10.0 mi West 5.8 mph - N/A   Clear
10:55 PM 54.0 °F - 37.9 °F 55% 30.13 in 10.0 mi Calm Calm - N/A   Clear
11:55 PM 55.9 °F - 39.0 °F 53% 30.13 in 10.0 mi East 5.8 mph - N/A   Clear